Retour au catalogue

BREEZE-M R/B

ActifHEO
NORAD 38653·ROCKET BODY·🇷🇺 Russia

Lancé Jul 9, 2012 depuis Baikonur Cosmodrome

Loading…

Prochains Passages (prochaines 24 heures)

TLE

FraisSource: Space-Track

Époque: Sep 12, 2026, 22:25 UTC

1 38653U 12036B   26255.93414071 -.00000115  00000-0  00000-0 0  9994
2 38653  23.4998 293.5211 6087768 314.9404   9.4299  2.17149926112482

Suivez BREEZE-M R/B en temps réel avec AllMySat

Download on the App Store